Tracking 19199 objects as of 24-Jun-2018
HD Live streaming from Space Station
objects crossing your sky now

FENGYUN 1C DEB

Track FENGYUN 1C DEB now!
10-day predictions


NORAD ID: 30708
Int'l Code: 1999-025ARS
Perigee: 857.4 km
Apogee: 870.0 km
Inclination: 99.0 °
Period: 102.1 minutes
Semi major axis: 7234 km
RCS: 0.009 m2 (small)
Launch date: May 10, 1999
Source: People's Republic of China (PRC)
Launch site: Taiyaun Space Center, China (TSC)

Note: This is SATELLITE DEBRIS
aabbcc
Your satellite tracking list
Your tracking list is empty




NASA's NSSDC Master Catalog

Two Line Element Set (TLE):
1 30708U 99025ARS 18174.88884524 +.00000074 +00000-0 +66168-4 0  9993
2 30708 098.9533 202.0837 0008712 013.6787 109.2951 14.10820948583469
Source of the keplerian elements: AFSPC